Date String (YYYY-MM-DD hh:mm:ss) UTC,Instrument flags,Ambient pressure (hPa),Sample flow (lpm),Bypass flow (lpm),Sample temperature (°C),Ambient temperature (°C),ASC tube jacket temperature (°C),LED temperature (°C),Box temperature (°C),Sample RH (%),Span deviation,Mass concentration (μg/m³),Mass concentration (μg/m³),Mass concentration (μg/m³)
DateTimeUTC,F1_M11,P_M11,Q1_M11,Q2_M11,T1_M11,T2_M11,T3_M11,T4_M11,T5_M11,U1_M11,ZSPAN_M11,X2_M11,X0_M11,X1_M11
2022-04-20 17:00:00,,0818.8,4.99,0.00,26.4,25.7,00.0,35.3,28.2,13.9,0000.0,0005.26,0020.19,0002.62
2022-04-20 17:01:00,,0818.8,4.99,0.00,26.4,25.6,00.0,35.3,28.2,13.8,0000.0,0005.29,0020.62,0002.63
2022-04-20 17:02:00,,0818.8,5.00,0.00,26.3,25.6,00.0,35.3,28.2,14.0,0000.0,0005.37,0022.27,0002.66
2022-04-20 17:03:00,,0819.0,4.99,0.00,26.4,25.6,00.0,35.3,28.2,14.1,0000.0,0005.35,0022.33,0002.65
2022-04-20 17:04:00,,0818.9,5.02,0.00,26.4,25.7,00.0,35.3,28.2,13.9,0000.0,0005.33,0022.66,0002.64
2022-04-20 17:05:00,,0819.0,4.99,0.00,26.4,25.7,00.0,35.3,28.2,13.9,0000.0,0005.39,0022.31,0002.64
2022-04-20 17:06:00,,0819.0,5.00,0.00,26.4,25.8,00.0,35.3,28.2,14.3,0000.0,0005.37,0021.87,0002.62
2022-04-20 17:07:00,,0819.0,4.99,0.00,26.4,25.8,00.0,35.3,28.2,14.2,0000.0,0005.30,0022.00,0002.60
2022-04-20 17:08:00,,0818.9,5.00,0.00,26.4,25.8,00.0,35.3,28.3,13.9,0000.0,0005.27,0022.30,0002.61
2022-04-20 17:09:00,,0818.9,5.01,0.00,26.4,25.8,00.0,35.3,28.3,14.0,0000.0,0005.23,0022.01,0002.62
2022-04-20 17:10:00,,0818.9,5.01,0.00,26.5,25.8,00.0,35.3,28.3,14.2,0000.0,0005.17,0021.55,0002.62
2022-04-20 17:11:00,,0818.9,4.99,0.00,26.5,25.9,00.0,35.3,28.3,13.9,0000.0,0005.19,0021.70,0002.66
2022-04-20 17:12:00,,0818.9,5.00,0.00,26.5,25.8,00.0,35.4,28.3,13.8,0000.0,0005.19,0022.25,0002.67
2022-04-20 17:13:00,,0818.8,5.02,0.00,26.5,25.8,00.0,35.4,28.3,13.9,0000.0,0005.19,0020.73,0002.68
2022-04-20 17:14:00,,0818.8,5.00,0.00,26.5,25.8,00.0,35.4,28.3,14.1,0000.0,0005.23,0020.21,0002.71
2022-04-20 17:15:00,,0818.8,5.00,0.00,26.5,25.8,00.0,35.4,28.3,14.2,0000.0,0005.33,0019.95,0002.73
2022-04-20 17:16:00,,0818.8,5.00,0.00,26.5,25.9,00.0,35.4,28.3,14.2,0000.0,0005.44,0020.66,0002.72
2022-04-20 17:17:00,,0818.8,5.02,0.00,26.5,25.9,00.0,35.4,28.3,13.9,0000.0,0005.45,0020.64,0002.73
2022-04-20 17:18:00,,0818.8,5.00,0.00,26.5,25.9,00.0,35.4,28.3,14.0,0000.0,0005.49,0020.75,0002.74
2022-04-20 17:19:00,,0818.9,5.00,0.00,26.5,26.0,00.0,35.4,28.3,13.9,0000.0,0005.47,0020.57,0002.72
2022-04-20 17:20:00,,0818.9,4.99,0.00,26.5,25.9,00.0,35.4,28.3,13.8,0000.0,0005.57,0021.32,0002.69
2022-04-20 17:21:00,,0818.9,4.99,0.00,26.5,26.0,00.0,35.4,28.3,13.8,0000.0,0005.57,0023.07,0002.69
2022-04-20 17:22:00,,0818.8,5.00,0.00,26.5,25.9,00.0,35.4,28.3,14.0,0000.0,0005.52,0023.08,0002.65
2022-04-20 17:23:00,,0818.7,5.01,0.00,26.5,25.9,00.0,35.4,28.3,13.9,0000.0,0005.52,0022.01,0002.60
2022-04-20 17:24:00,,0818.5,5.00,0.00,26.5,25.8,00.0,35.4,28.3,13.8,0000.0,0005.53,0022.77,0002.56
2022-04-20 17:25:00,,0818.6,4.99,0.00,26.5,25.8,00.0,35.4,28.3,14.0,0000.0,0005.48,0023.70,0002.52
2022-04-20 17:26:00,,0818.8,5.00,0.00,26.5,25.8,00.0,35.4,28.3,13.8,0000.0,0005.41,0024.52,0002.47
2022-04-20 17:27:00,,0818.8,5.00,0.00,26.5,25.8,00.0,35.4,28.3,13.7,0000.0,0005.30,0023.51,0002.43
2022-04-20 17:28:00,,0818.9,5.00,0.00,26.5,25.8,00.0,35.4,28.4,13.8,0000.0,0005.30,0023.69,0002.40
2022-04-20 17:29:00,,0818.9,5.00,0.00,26.6,25.9,00.0,35.5,28.4,13.8,0000.0,0005.31,0023.95,0002.38
2022-04-20 17:30:00,,0818.8,4.99,0.00,26.6,25.9,00.0,35.5,28.4,13.7,0000.0,0005.37,0025.18,0002.37
2022-04-20 17:31:00,,0818.7,5.01,0.00,26.6,25.9,00.0,35.5,28.4,14.0,0000.0,0005.30,0024.36,0002.37
2022-04-20 17:32:00,,0818.7,5.00,0.00,26.6,25.9,00.0,35.5,28.4,13.7,0000.0,0005.34,0022.88,0002.36
2022-04-20 17:33:00,,0818.8,4.99,0.00,26.6,25.9,00.0,35.5,28.4,13.7,0000.0,0005.42,0022.83,0002.38
2022-04-20 17:34:00,,0818.8,5.00,0.00,26.6,25.9,00.0,35.5,28.4,13.6,0000.0,0005.53,0024.13,0002.42
2022-04-20 17:35:00,,0818.8,4.99,0.00,26.6,25.9,00.0,35.5,28.4,13.9,0000.0,0005.54,0024.47,0002.45
2022-04-20 17:36:00,,0818.8,5.02,0.00,26.6,26.0,00.0,35.5,28.4,13.7,0000.0,0005.47,0022.26,0002.45
2022-04-20 17:37:00,,0818.8,4.99,0.00,26.6,26.0,00.0,35.5,28.4,13.6,0000.0,0005.43,0022.29,0002.44
2022-04-20 17:38:00,,0818.8,4.99,0.00,26.6,26.0,00.0,35.5,28.4,14.0,0000.0,0005.44,0023.32,0002.45
2022-04-20 17:39:00,,0818.8,5.01,0.00,26.6,26.0,00.0,35.5,28.5,13.6,0000.0,0005.48,0023.41,0002.47
2022-04-20 17:40:00,,0818.8,5.01,0.00,26.6,26.0,00.0,35.5,28.5,13.6,0000.0,0005.44,0023.92,0002.48
2022-04-20 17:41:00,,0818.8,5.00,0.00,26.6,26.0,00.0,35.5,28.5,13.5,0000.0,0005.49,0023.21,0002.49
2022-04-20 17:42:00,,0818.8,4.99,0.00,26.7,26.0,00.0,35.5,28.5,13.6,0000.0,0005.55,0022.60,0002.52
2022-04-20 17:43:00,,0818.8,5.00,0.00,26.7,26.0,00.0,35.6,28.5,13.5,0000.0,0005.57,0022.12,0002.53
2022-04-20 17:44:00,,0818.7,5.00,0.00,26.7,26.0,00.0,35.6,28.5,13.7,0000.0,0005.54,0021.66,0002.51
2022-04-20 17:45:00,,0818.7,4.99,0.00,26.7,26.0,00.0,35.6,28.5,13.6,0000.0,0005.46,0020.12,0002.48
2022-04-20 17:46:00,,0818.7,5.01,0.00,26.7,26.1,00.0,35.6,28.5,13.6,0000.0,0005.50,0019.98,0002.46
2022-04-20 17:47:00,,0818.8,5.00,0.00,26.7,26.1,00.0,35.6,28.5,13.6,0000.0,0005.65,0021.40,0002.47
2022-04-20 17:48:00,,0818.8,4.99,0.00,26.7,26.1,00.0,35.6,28.5,13.6,0000.0,0005.79,0021.84,0002.50
2022-04-20 17:49:00,,0818.8,5.00,0.00,26.7,26.1,00.0,35.6,28.5,13.3,0000.0,0005.80,0020.60,0002.50
2022-04-20 17:50:00,,0818.7,5.02,0.00,26.7,26.1,00.0,35.6,28.5,13.5,0000.0,0005.83,0020.84,0002.51
2022-04-20 17:51:00,,0818.6,4.97,0.00,26.7,26.1,00.0,35.6,28.6,13.9,0000.0,0005.80,0020.22,0002.50
2022-04-20 17:52:00,,0818.8,4.99,0.00,26.7,26.1,00.0,35.6,28.6,13.6,0000.0,0005.70,0019.71,0002.49
2022-04-20 17:53:00,,0818.8,5.01,0.00,26.7,26.1,00.0,35.6,28.6,13.5,0000.0,0005.63,0019.64,0002.48
2022-04-20 17:54:00,,0818.8,5.01,0.00,26.8,26.1,00.0,35.6,28.6,13.4,0000.0,0005.62,0020.54,0002.47
2022-04-20 17:55:00,,0818.7,4.99,0.00,26.8,26.1,00.0,35.6,28.6,13.3,0000.0,0005.62,0020.67,0002.47
2022-04-20 17:56:00,,0818.8,5.00,0.00,26.8,26.1,00.0,35.7,28.6,13.5,0000.0,0005.66,0021.78,0002.49
2022-04-20 17:57:00,,0818.7,5.02,0.00,26.8,26.2,00.0,35.7,28.6,13.4,0000.0,0005.71,0023.35,0002.50
2022-04-20 17:58:00,,0818.8,5.00,0.00,26.8,26.2,00.0,35.7,28.6,13.4,0000.0,0005.70,0022.48,0002.49
2022-04-20 17:59:00,,0818.7,5.00,0.00,26.8,26.2,00.0,35.7,28.6,13.6,0000.0,0005.63,0022.13,0002.46
